Kristianstad, Sweden

8:13 PM CEST on May 24, 2018 (GMT +0200)
Kristianstad

Weather History for ESMK - October, 2013

Change the Weather History Date:

Saturday, October 26, 2013

  Actual Average Record
Temperature  
Mean Temperature 58 °F -  
Max Temperature 62 °F - - ()
Min Temperature 55 °F - - ()
Degree Days  
Heating Degree Days 6    
Growing Degree Days 8 (Base 50)    
Moisture  
Dew Point 55 °F    
Average Humidity 88    
Maximum Humidity 100    
Minimum Humidity 77    
Precipitation  
Precipitation 0.00 in - - ()
Sea Level Pressure  
Sea Level Pressure 29.70 in    
Wind  
Wind Speed 9 mph ()    
Max Wind Speed 17 mph    
Max Gust Speed -    
Visibility 5.4 miles    
Events Rain    
T = Trace of Precipitation, MM = Missing Value Source: Averaged Metar Reports

Daily Weather History Graph

Daily Weather History Graph

Search for Another Location

Airport or City:

Astronomy

Oct. 26, 2013 Rise Set
Actual Time 7:57 AM CEST 5:36 PM CEST
Civil Twilight 7:19 AM CEST 6:15 PM CEST
Nautical Twilight 6:35 AM CEST 6:58 PM CEST
Astronomical Twilight 5:52 AM CEST 7:41 PM CEST
Moon 11:27 PM CEST (10/26) 2:15 PM CEST (10/26)
Length of Visible Light 10h 56m
Length of Day
9h 38m
Waning Gibbous, 55% of the Moon is Illuminated
Oct 26
Waning Gibbous
Oct 27
Last Quarter
Nov 3
New
Nov 10
First Quarter
Nov 17
Full

Hourly Weather History & Observations

Time (CEST) Temp. Dew Point Humidity Pressure Visibility Wind Dir Wind Speed Gust Speed Precip Events Conditions
12:20 AM 55.4 °F 51.8 °F 88% 29.80 in 6.2 mi South 8.1 mph - N/A   Overcast
12:50 AM 55.4 °F 53.6 °F 94% 29.77 in 2.5 mi South 9.2 mph - N/A   Light Drizzle
1:20 AM 55.4 °F 53.6 °F 94% 29.77 in 4.3 mi South 8.1 mph - N/A   Overcast
1:50 AM 55.4 °F 53.6 °F 94% 29.77 in - South 8.1 mph - N/A   Overcast
2:20 AM 55.4 °F 53.6 °F 94% 29.74 in 3.1 mi SSW 6.9 mph - N/A   Overcast
2:50 AM 55.4 °F 55.4 °F 100% 29.74 in 3.7 mi SW 5.8 mph - N/A   Light Drizzle
3:20 AM 57.2 °F 55.4 °F 94% 29.74 in 3.1 mi WSW 4.6 mph - N/A Rain Light Rain
3:50 AM 57.2 °F 55.4 °F 94% 29.74 in 3.1 mi WSW 8.1 mph - N/A   Light Drizzle
4:20 AM 57.2 °F 55.4 °F 94% 29.74 in - WSW 6.9 mph - N/A Rain Light Rain
4:50 AM 57.2 °F 55.4 °F 94% 29.74 in 3.1 mi SW 4.6 mph - N/A   Partly Cloudy
5:20 AM 57.2 °F 57.2 °F 100% 29.71 in - SSW 5.8 mph - N/A   Mostly Cloudy
5:50 AM 57.2 °F 57.2 °F 100% 29.71 in 3.1 mi SSW 6.9 mph - N/A   Mostly Cloudy
6:20 AM 57.2 °F 57.2 °F 100% 29.71 in 3.1 mi SSW 6.9 mph - N/A   Overcast
6:50 AM 57.2 °F 55.4 °F 94% 29.71 in - SSW 4.6 mph - N/A   Mostly Cloudy
7:20 AM 57.2 °F 57.2 °F 100% 29.71 in 3.1 mi SSW 5.8 mph - N/A   Mostly Cloudy
7:50 AM 59.0 °F 57.2 °F 94% 29.71 in 3.7 mi SW 6.9 mph - N/A   Overcast
8:20 AM 59.0 °F 55.4 °F 88% 29.71 in 4.3 mi SW 8.1 mph - N/A   Overcast
8:50 AM 59.0 °F 55.4 °F 88% 29.71 in 5.0 mi SW 8.1 mph - N/A   Mostly Cloudy
9:20 AM 59.0 °F 55.4 °F 88% 29.71 in 6.2 mi SSW 8.1 mph - N/A   Mostly Cloudy
9:50 AM 59.0 °F 55.4 °F 88% 29.71 in 6.2 mi SW 11.5 mph - N/A   Mostly Cloudy
10:20 AM 59.0 °F 55.4 °F 88% 29.71 in 6.2 mi SW 11.5 mph - N/A   Overcast
10:50 AM 59.0 °F 55.4 °F 88% 29.71 in 6.2 mi SW 12.7 mph - N/A   Overcast
11:20 AM 59.0 °F 55.4 °F 88% 29.71 in 6.2 mi SW 16.1 mph - N/A   Overcast
11:50 AM 59.0 °F 55.4 °F 88% 29.71 in 6.2 mi SW 12.7 mph - N/A   Overcast
12:20 PM 60.8 °F 55.4 °F 82% 29.71 in 6.2 mi WSW 13.8 mph - N/A   Mostly Cloudy
12:50 PM 60.8 °F 55.4 °F 82% 29.68 in 6.2 mi WSW 15.0 mph - N/A   Scattered Clouds
1:20 PM 60.8 °F 55.4 °F 82% 29.68 in 6.2 mi SW 17.3 mph - N/A   Mostly Cloudy
1:50 PM 60.8 °F 55.4 °F 82% 29.68 in 6.2 mi WSW 17.3 mph - N/A   Scattered Clouds
2:20 PM 62.6 °F 55.4 °F 77% 29.65 in 6.2 mi SW 16.1 mph - N/A   Partly Cloudy
2:50 PM 60.8 °F 55.4 °F 82% 29.68 in 6.2 mi SW 16.1 mph - N/A   Mostly Cloudy
3:20 PM 60.8 °F 55.4 °F 82% 29.65 in 6.2 mi SW 16.1 mph - N/A   Partly Cloudy
3:50 PM 60.8 °F 55.4 °F 82% 29.68 in 6.2 mi SW 13.8 mph - N/A   Scattered Clouds
4:20 PM 60.8 °F 55.4 °F 82% 29.68 in 6.2 mi SW 13.8 mph - N/A   Scattered Clouds
4:50 PM 60.8 °F 53.6 °F 77% 29.68 in 6.2 mi SW 13.8 mph - N/A   Partly Cloudy
5:20 PM 59.0 °F 53.6 °F 82% 29.68 in 6.2 mi SW 11.5 mph - N/A   Partly Cloudy
5:50 PM 59.0 °F 53.6 °F 82% 29.68 in 6.2 mi SW 12.7 mph - N/A   Partly Cloudy
6:20 PM 59.0 °F 55.4 °F 88% 29.68 in 6.2 mi SW 10.4 mph - N/A   Mostly Cloudy
6:50 PM 59.0 °F 53.6 °F 82% 29.68 in 6.2 mi SW 11.5 mph - N/A   Mostly Cloudy
7:20 PM 59.0 °F 53.6 °F 82% 29.68 in 6.2 mi SW 12.7 mph - N/A   Mostly Cloudy
7:50 PM 59.0 °F 53.6 °F 82% 29.68 in 6.2 mi SW 11.5 mph - N/A   Mostly Cloudy
8:20 PM 59.0 °F 53.6 °F 82% 29.68 in 6.2 mi SW 15.0 mph - N/A   Mostly Cloudy
8:50 PM 59.0 °F 53.6 °F 82% 29.68 in 6.2 mi SW 12.7 mph - N/A   Mostly Cloudy
9:20 PM 59.0 °F 53.6 °F 82% 29.68 in 6.2 mi SW 13.8 mph - N/A   Mostly Cloudy
9:50 PM 57.2 °F 53.6 °F 88% 29.68 in 6.2 mi SW 10.4 mph - N/A   Partly Cloudy
10:20 PM 57.2 °F 53.6 °F 88% 29.68 in 6.2 mi SW 8.1 mph - N/A   Mostly Cloudy
10:50 PM 55.4 °F 53.6 °F 94% 29.68 in 6.2 mi SSW 5.8 mph - N/A   Scattered Clouds
11:20 PM 57.2 °F 53.6 °F 88% 29.68 in 6.2 mi SSW 10.4 mph - N/A   Mostly Cloudy
11:50 PM 57.2 °F 55.4 °F 94% 29.68 in 6.2 mi SSW 9.2 mph - N/A   Mostly Cloudy